| time (UTC) | temp F | wind direction | speed MPH | gust MPH | rain 1hr in | rain 24hr in | rain mn in | humidity % | barometer mb |
| 20260504184538 | 0 | 0.0 | 0.0 | 0.00 | 0.00 | 0.00 | 1010.4 | ||
| 20260504183027 | 0 | 0.0 | 0.0 | 0.00 | 0.00 | 0.00 | 1010.4 | ||
| 20260504181523 | 0 | 0.0 | 0.0 | 0.00 | 0.00 | 0.00 | 1010.5 | ||
| 20260504180021 | 0 | 0.0 | 0.0 | 0.00 | 0.00 | 0.00 | 1010.4 | ||
| 20260504174514 | 0 | 0.0 | 0.0 | 0.00 | 0.00 | 0.00 | 1010.5 | ||
| 20260504173015 | 0 | 0.0 | 0.0 | 0.00 | 0.00 | 0.00 | 1010.4 | ||
| 20260504171505 | 0 | 0.0 | 0.0 | 0.00 | 0.00 | 0.00 | 1010.6 | ||
| 20260504081547 | 57 | 277 | 2.0 | 3.0 | 0.00 | 0.00 | 0.00 | 86 | 1008.8 |
| 20260504044531 | 63 | 284 | 1.0 | 3.0 | 0.00 | 0.00 | 0.00 | 69 | 1009.3 |
| 20260504043030 | 62 | 292 | 2.0 | 4.0 | 0.00 | 0.00 | 0.00 | 71 | 1009.2 |
| 20260504041528 | 63 | 292 | 2.0 | 4.0 | 0.00 | 0.00 | 0.00 | 70 | 1009.1 |
| 20260504040031 | 64 | 283 | 0.0 | 3.0 | 0.00 | 0.00 | 0.00 | 62 | 1009.1 |
| 20260504034540 | 66 | 283 | 0.0 | 0.0 | 0.00 | 0.00 | 0.00 | 56 | 1009.0 |
| 20260504033030 | 66 | 283 | 0.0 | 0.0 | 0.00 | 0.00 | 0.00 | 54 | 1009.0 |
| 20260504031523 | 0 | 0.0 | 0.0 | 0.00 | 0.00 | 0.00 | 1009.1 | ||
| 20260504030029 | 0 | 0.0 | 0.0 | 0.00 | 0.00 | 0.00 | 1009.1 | ||
| 20260504024518 | 68 | 150 | 3.0 | 5.0 | 0.00 | 0.00 | 0.00 | 50 | 1009.1 |
| 20260504023016 | 68 | 140 | 2.0 | 5.0 | 0.00 | 0.00 | 0.00 | 52 | 1009.1 |
| 20260504021514 | 68 | 153 | 2.0 | 5.0 | 0.00 | 0.00 | 0.00 | 52 | 1009.4 |
| 20260504020013 | 67 | 148 | 2.0 | 6.0 | 0.00 | 0.00 | 0.00 | 53 | 1009.5 |
| 20260504014517 | 67 | 161 | 4.0 | 8.0 | 0.00 | 0.00 | 0.00 | 53 | 1009.5 |
| 20260504013010 | 68 | 157 | 3.0 | 6.0 | 0.00 | 0.00 | 0.00 | 53 | 1009.7 |
| 20260504011510 | 68 | 143 | 2.0 | 6.0 | 0.00 | 0.00 | 0.00 | 55 | 1009.7 |
| 20260504010007 | 68 | 154 | 3.0 | 6.0 | 0.00 | 0.00 | 0.00 | 55 | 1009.9 |
| 20260504004506 | 67 | 149 | 4.0 | 7.0 | 0.00 | 0.00 | 0.00 | 57 | 1010.0 |
| 20260504003003 | 67 | 152 | 3.0 | 5.0 | 0.00 | 0.00 | 0.00 | 57 | 1010.2 |
| 20260504001501 | 67 | 165 | 3.0 | 6.0 | 0.00 | 0.00 | 0.00 | 57 | 1010.3 |
| 20260504000108 | 69 | 162 | 2.0 | 5.0 | 0.00 | 0.00 | 0.00 | 55 | 1010.5 |
| 20260503234557 | 70 | 173 | 3.0 | 8.0 | 0.00 | 0.00 | 0.00 | 54 | 1010.7 |
| 20260503233056 | 73 | 197 | 3.0 | 6.0 | 0.00 | 0.00 | 0.00 | 51 | 1010.8 |
| 20260503231555 | 74 | 175 | 1.0 | 5.0 | 0.00 | 0.00 | 0.00 | 50 | 1010.8 |
| 20260503230051 | 74 | 237 | 4.0 | 8.0 | 0.00 | 0.00 | 0.00 | 51 | 1010.9 |
| 20260503224551 | 76 | 251 | 4.0 | 10.0 | 0.00 | 0.00 | 0.00 | 44 | 1011.1 |
| 20260503223045 | 75 | 341 | 8.0 | 13.0 | 0.00 | 0.00 | 0.00 | 43 | 1011.3 |
| 20260503221541 | 74 | 355 | 9.0 | 13.0 | 0.00 | 0.00 | 0.00 | 44 | 1011.4 |
| 20260503220040 | 74 | 9 | 10.0 | 13.0 | 0.00 | 0.00 | 0.00 | 44 | 1011.5 |
| 20260503214542 | 74 | 355 | 9.0 | 14.0 | 0.00 | 0.00 | 0.00 | 44 | 1011.7 |
| 20260503213050 | 73 | 340 | 12.0 | 17.0 | 0.00 | 0.00 | 0.00 | 45 | 1011.9 |
| 20260503211532 | 72 | 320 | 10.0 | 17.0 | 0.00 | 0.00 | 0.00 | 46 | 1012.0 |
| 20260503210024 | 72 | 348 | 12.0 | 16.0 | 0.00 | 0.00 | 0.00 | 47 | 1012.3 |
| 20260503204528 | 72 | 345 | 14.0 | 18.0 | 0.00 | 0.00 | 0.00 | 47 | 1012.5 |
| 20260503203023 | 71 | 349 | 12.0 | 17.0 | 0.00 | 0.00 | 0.00 | 47 | 1012.7 |
| 20260503201520 | 71 | 338 | 12.0 | 16.0 | 0.00 | 0.00 | 0.00 | 48 | 1012.9 |
| 20260503200016 | 71 | 344 | 8.0 | 13.0 | 0.00 | 0.00 | 0.00 | 52 | 1013.1 |
| 20260503194518 | 69 | 153 | 1.0 | 6.0 | 0.00 | 0.00 | 0.00 | 58 | 1013.2 |
| 20260503193009 | 70 | 207 | 4.0 | 10.0 | 0.00 | 0.00 | 0.00 | 55 | 1013.3 |
| 20260503191507 | 71 | 336 | 5.0 | 12.0 | 0.00 | 0.00 | 0.00 | 49 | 1013.4 |
| 20260503190005 | 70 | 12 | 8.0 | 15.0 | 0.00 | 0.00 | 0.00 | 49 | 1013.6 |